Showing default

GEESAT 4-09, 65127

Orbit data source: Space-Track

GEESAT 4-09, 65127 is a payload satellite owned by GeeSpace (CN) in LEO that was launched on Fri, 08 Aug 2025 UTC via a JIELONG-3 launch vehicle from the Yellow Sea Launch Area, China (YSLA). Payload-class satellites include a variety of spacecraft equipped with specific instruments for various scientific and technological missions. These include communications satellites like Starlink; space stations such as the ISS; scientific satellites like the Hubble; Earth observation satellites from companies like Planet Labs, Umbra, and HawkEye 360; GPS; miniature CubeSats for education and research; and military/defense satellites.

Loading next visibility...
Identifier
65127, 2025-170J
Orbit
LEO
Country
Flag of CNCN / PRC
Related business
Manufacturer
GWCG
Mission
Operational Commercial Navigation
Bus & Motor
GPS100, Unknown motor
Mass
130 kg wet, 130 kg dry
Launch date (UTC)
2025-08-08 (1 year ago)
Launch vehicle
JIELONG-3
Launch site
Yellow Sea Launch Area, China (YSLA)
Object type
Payload
Rocket body
Debris
Shape & HBR
Box + 2 Pan, 1.0 m
Radar Cross Section
0.833 m², Medium (>0.1 m² and < 1m²)

Expand to show TLE details & history
Last TLE update: 8 hours ago

TLE from 8 hours ago
0 GEESAT 4-09
1 65127U 25170J   26255.90413497  .00001056  00000-0  16087-3 0  9990
2 65127  49.9912 158.7587 0022302   6.7798 353.3437 14.81629892 59006
Epoch: 2026-09-12T21:41Z
TLE epoch observation values (Epoch: 2026-09-12T21:41:57.261Z)
Latitude
-0.00002°
Longitude
-158.63635°
Altitude
609.217 km
Speed
7.564 km/s
True Right ascension
10h 35m 02s
True Declination
0° 00' 00"
Sunlit
Object was in daylight at epoch
Visualization orbit readout
Latitude
Unknown
Longitude
Unknown
Altitude
Unknown
Speed
Unknown
Apparent Right ascension
Unknown
Apparent Declination
Unknown
Sunlit
N/A
Visualization observer readout
Local Sidereal Time
22:20:40
Azimuth
Unknown
Elevation
Unknown
Doppler factor
Unknown
Orbital elements
Apogee altitude
640.561 km
Perigee altitude
609.325 km
Semi-major axis
7,003.08 km
Eccentricity
0.00223
Inclination
49.9912°
RAAN
158.7587°
Arg. of periapsis
6.7798°
True anomaly
353.31399°
Mean anomaly
353.3437°
Eccentric anomaly
353.32886°
Mean motion
3.70348 °/min
Orbital period
97.21 mins
BSTAR
0.00016087
Loading maneuver chart data...
Computing Atmospheric mass density...
Loading historical data...
Loading historical data...
Loading historical data...
Loading historical data...
Loading historical data...
Loading historical data...
Loading historical data...

Documentation

Showing up to 5 results
|